START_TIME,STEP,MOV.,P11,t_acc.,P23,t_acc.,P27,t_acc.,A4,t_acc.
1979-07-03 00:00:23.950 ,0,0,1.,4.8,0.,4.8,0.,4.8,0.,4.8
1979-07-03 00:00:28.760 ,0,0,0.,4.8,0.,4.8,0.,4.8,0.,4.8
1979-07-03 00:00:33.560 ,0,0,0.,4.8,0.,4.8,0.,4.8,0.,4.8
1979-07-03 00:00:38.360 ,0,0,1.,4.8,0.,4.8,0.,4.8,0.,4.8
1979-07-03 00:00:43.160 ,0,0,1.,4.8,0.,4.8,0.,4.8,0.,4.8
1979-07-03 00:00:47.950 ,1,0,1.,4.8,0.,4.8,0.,4.8,0.,4.8
1979-07-03 00:00:52.760 ,1,0,0.,4.8,0.,4.8,0.,4.8,0.,4.8
1979-07-03 00:00:57.560 ,1,0,0.,4.8,0.,4.8,0.,4.8,0.,4.8
1979-07-03 00:01:02.360 ,1,0,0.,4.8,0.,4.8,0.,4.8,0.,4.8
1979-07-03 00:01:07.160 ,1,0,1.,4.8,0.,4.8,0.,4.8,0.,4.8
1979-07-03 00:01:11.960 ,1,0,0.,4.8,0.,4.8,0.,4.8,0.,4.8
1979-07-03 00:01:16.760 ,1,0,0.,4.8,0.,4.8,0.,4.8,0.,4.8
1979-07-03 00:01:21.560 ,1,0,1.,4.8,0.,4.8,0.,4.8,0.,4.8
1979-07-03 00:01:26.360 ,1,0,0.,4.8,0.,4.8,1.,4.8,0.,4.8
1979-07-03 00:01:31.160 ,1,0,1.,4.8,0.,4.8,0.,4.8,0.,4.8
1979-07-03 00:01:35.960 ,2,0,1.,4.8,0.,4.8,0.,4.8,0.,4.8
1979-07-03 00:01:40.760 ,2,0,1.,4.8,0.,4.8,0.,4.8,0.,4.8
1979-07-03 00:01:45.560 ,2,0,0.,4.8,0.,4.8,0.,4.8,0.,4.8
1979-07-03 00:01:50.360 ,2,0,0.,4.8,0.,4.8,0.,4.8,0.,4.8
1979-07-03 00:01:55.160 ,2,0,0.,4.8,0.,4.8,1.,4.8,0.,4.8
1979-07-03 00:01:59.960 ,2,0,0.,4.8,1.,4.8,0.,4.8,0.,4.8
1979-07-03 00:02:04.760 ,2,0,0.,4.8,0.,4.8,0.,4.8,0.,4.8
1979-07-03 00:02:09.560 ,2,0,0.,4.8,0.,4.8,0.,4.8,0.,4.8
1979-07-03 00:02:14.360 ,2,0,0.,4.8,0.,4.8,0.,4.8,0.,4.8
1979-07-03 00:02:19.160 ,2,0,0.,4.8,0.,4.8,0.,4.8,0.,4.8
1979-07-03 00:02:23.960 ,3,0,0.,4.8,0.,4.8,0.,4.8,0.,4.8
1979-07-03 00:02:28.760 ,3,0,1.,4.8,0.,4.8,0.,4.8,0.,4.8
1979-07-03 00:02:33.550 ,3,0,0.,4.8,0.,4.8,0.,4.8,0.,4.8
1979-07-03 00:02:38.350 ,3,0,0.,4.8,0.,4.8,0.,4.8,0.,4.8
1979-07-03 00:02:43.160 ,3,0,0.,4.8,0.,4.8,0.,4.8,0.,4.8
1979-07-03 00:02:47.960 ,3,0,1.,4.8,0.,4.8,0.,4.8,0.,4.8
1979-07-03 00:02:52.760 ,3,0,0.,4.8,0.,4.8,0.,4.8,0.,4.8
1979-07-03 00:02:57.560 ,3,0,0.,4.8,0.,4.8,0.,4.8,0.,4.8
1979-07-03 00:03:02.360 ,3,0,1.,4.8,0.,4.8,0.,4.8,0.,4.8
1979-07-03 00:03:07.150 ,3,0,0.,4.8,0.,4.8,0.,4.8,0.,4.8
1979-07-03 00:03:11.960 ,4,0,0.,4.8,0.,4.8,0.,4.8,0.,4.8
1979-07-03 00:03:16.760 ,4,0,1.,4.8,0.,4.8,0.,4.8,0.,4.8
1979-07-03 00:03:21.560 ,4,0,1.,4.8,0.,4.8,0.,4.8,0.,4.8
1979-07-03 00:03:26.350 ,4,0,0.,4.8,0.,4.8,0.,4.8,0.,4.8
1979-07-03 00:03:31.150 ,4,0,1.,4.8,0.,4.8,1.,4.8,0.,4.8
1979-07-03 00:03:35.950 ,4,0,0.,4.8,0.,4.8,0.,4.8,0.,4.8
1979-07-03 00:03:40.750 ,4,0,0.,4.8,0.,4.8,0.,4.8,0.,4.8
1979-07-03 00:03:45.560 ,4,0,0.,4.8,0.,4.8,0.,4.8,0.,4.8
1979-07-03 00:03:50.360 ,4,0,0.,4.8,0.,4.8,0.,4.8,0.,4.8
1979-07-03 00:03:55.160 ,4,0,0.,4.8,0.,4.8,0.,4.8,0.,4.8
1979-07-03 00:03:59.950 ,5,0,0.,4.8,0.,4.8,0.,4.8,0.,4.8
1979-07-03 00:04:04.750 ,5,0,0.,4.8,0.,4.8,0.,4.8,0.,4.8
1979-07-03 00:04:09.550 ,5,0,0.,4.8,0.,4.8,0.,4.8,0.,4.8
1979-07-03 00:04:14.350 ,5,0,1.,4.8,0.,4.8,0.,4.8,0.,4.8
1979-07-03 00:04:19.150 ,5,0,0.,4.8,0.,4.8,0.,4.8,0.,4.8
1979-07-03 00:04:23.960 ,5,0,1.,4.8,0.,4.8,0.,4.8,0.,4.8
1979-07-03 00:04:28.760 ,5,0,0.,4.8,0.,4.8,0.,4.8,0.,4.8
1979-07-03 00:04:33.560 ,5,0,0.,4.8,0.,4.8,0.,4.8,0.,4.8
1979-07-03 00:04:38.360 ,5,0,0.,4.8,0.,4.8,0.,4.8,0.,4.8
1979-07-03 00:04:43.160 ,5,0,0.,4.8,0.,4.8,0.,4.8,0.,4.8
1979-07-03 00:04:47.960 ,6,0,0.,4.8,0.,4.8,0.,4.8,0.,4.8
1979-07-03 00:04:52.760 ,6,0,0.,4.8,0.,4.8,0.,4.8,0.,4.8
1979-07-03 00:04:57.560 ,6,0,0.,4.8,1.,4.8,0.,4.8,0.,4.8
1979-07-03 00:05:02.360 ,6,0,2.,4.8,0.,4.8,1.,4.8,0.,4.8
1979-07-03 00:05:07.160 ,6,0,0.,4.8,0.,4.8,0.,4.8,0.,4.8
1979-07-03 00:05:11.960 ,6,0,1.,4.8,0.,4.8,0.,4.8,0.,4.8
1979-07-03 00:05:16.760 ,6,0,1.,4.8,0.,4.8,0.,4.8,0.,4.8
1979-07-03 00:05:21.560 ,6,0,0.,4.8,0.,4.8,0.,4.8,0.,4.8
1979-07-03 00:05:26.360 ,6,0,0.,4.8,0.,4.8,0.,4.8,0.,4.8
1979-07-03 00:05:31.160 ,6,0,0.,4.8,0.,4.8,0.,4.8,0.,4.8
1979-07-03 00:05:35.960 ,7,0,1.,4.8,0.,4.8,0.,4.8,0.,4.8
1979-07-03 00:05:40.760 ,7,0,0.,4.8,0.,4.8,0.,4.8,0.,4.8
1979-07-03 00:05:45.560 ,7,0,0.,4.8,0.,4.8,0.,4.8,0.,4.8
1979-07-03 00:05:50.360 ,7,0,0.,4.8,0.,4.8,0.,4.8,0.,4.8
1979-07-03 00:05:55.160 ,7,0,0.,4.8,0.,4.8,0.,4.8,0.,4.8
1979-07-03 00:05:59.960 ,7,0,0.,4.8,0.,4.8,1.,4.8,0.,4.8
1979-07-03 00:06:04.760 ,7,0,0.,4.8,0.,4.8,0.,4.8,0.,4.8
1979-07-03 00:06:09.560 ,7,0,1.,4.8,0.,4.8,0.,4.8,0.,4.8
1979-07-03 00:06:14.360 ,7,0,0.,4.8,0.,4.8,0.,4.8,0.,4.8
1979-07-03 00:06:19.160 ,7,0,0.,4.8,0.,4.8,0.,4.8,0.,4.8
1979-07-03 00:06:23.960 ,7,0,2.,4.8,0.,4.8,0.,4.8,0.,4.8
1979-07-03 00:06:28.760 ,7,0,1.,4.8,0.,4.8,0.,4.8,0.,4.8
1979-07-03 00:06:33.560 ,7,0,0.,4.8,0.,4.8,1.,4.8,0.,4.8
1979-07-03 00:06:38.360 ,7,0,0.,4.8,0.,4.8,0.,4.8,0.,4.8
1979-07-03 00:06:43.160 ,7,0,0.,4.8,0.,4.8,0.,4.8,0.,4.8
1979-07-03 00:06:47.960 ,7,0,1.,4.8,0.,4.8,0.,4.8,0.,4.8
1979-07-03 00:06:52.760 ,7,0,0.,4.8,0.,4.8,0.,4.8,0.,4.8
1979-07-03 00:06:57.560 ,7,0,0.,4.8,0.,4.8,0.,4.8,0.,4.8
1979-07-03 00:07:02.360 ,7,0,0.,4.8,0.,4.8,0.,4.8,0.,4.8
1979-07-03 00:07:07.160 ,7,0,0.,4.8,0.,4.8,0.,4.8,0.,4.8
1979-07-03 00:07:11.960 ,6,0,0.,4.8,0.,4.8,0.,4.8,0.,4.8
1979-07-03 00:07:16.760 ,6,0,1.,4.8,0.,4.8,0.,4.8,0.,4.8
1979-07-03 00:07:21.560 ,6,0,0.,4.8,0.,4.8,0.,4.8,0.,4.8
1979-07-03 00:07:26.360 ,6,0,0.,4.8,0.,4.8,0.,4.8,0.,4.8
1979-07-03 00:07:31.160 ,6,0,1.,4.8,0.,4.8,0.,4.8,0.,4.8
1979-07-03 00:07:35.960 ,6,0,1.,4.8,0.,4.8,0.,4.8,0.,4.8
1979-07-03 00:07:40.760 ,6,0,0.,4.8,0.,4.8,0.,4.8,0.,4.8
1979-07-03 00:07:45.560 ,6,0,1.,4.8,0.,4.8,0.,4.8,0.,4.8
1979-07-03 00:07:50.360 ,6,0,0.,4.8,0.,4.8,0.,4.8,0.,4.8
1979-07-03 00:07:55.160 ,6,0,0.,4.8,0.,4.8,0.,4.8,0.,4.8
1979-07-03 00:07:59.960 ,5,0,0.,4.8,0.,4.8,0.,4.8,0.,4.8
1979-07-03 00:08:04.760 ,5,0,0.,4.8,0.,4.8,0.,4.8,0.,4.8
1979-07-03 00:08:09.560 ,5,0,0.,4.8,0.,4.8,0.,4.8,0.,4.8
1979-07-03 00:08:14.360 ,5,0,0.,4.8,1.,4.8,0.,4.8,0.,4.8
1979-07-03 00:08:19.160 ,5,0,0.,4.8,0.,4.8,1.,4.8,0.,4.8
1979-07-03 00:08:23.960 ,5,0,0.,4.8,0.,4.8,0.,4.8,0.,4.8
1979-07-03 00:08:28.760 ,5,0,0.,4.8,0.,4.8,0.,4.8,0.,4.8
1979-07-03 00:08:33.550 ,5,0,1.,4.8,0.,4.8,0.,4.8,0.,4.8
1979-07-03 00:08:38.360 ,5,0,0.,4.8,0.,4.8,0.,4.8,0.,4.8
1979-07-03 00:08:43.160 ,5,0,2.,4.8,0.,4.8,0.,4.8,0.,4.8
1979-07-03 00:08:47.950 ,4,0,1.,4.8,0.,4.8,0.,4.8,0.,4.8
1979-07-03 00:08:52.760 ,4,0,0.,4.8,1.,4.8,0.,4.8,0.,4.8
1979-07-03 00:08:57.550 ,4,0,1.,4.8,0.,4.8,0.,4.8,0.,4.8
1979-07-03 00:09:02.350 ,4,0,0.,4.8,0.,4.8,0.,4.8,0.,4.8
1979-07-03 00:09:07.150 ,4,0,0.,4.8,0.,4.8,0.,4.8,1.,4.8
1979-07-03 00:09:11.950 ,4,0,0.,4.8,0.,4.8,0.,4.8,0.,4.8
1979-07-03 00:09:16.760 ,4,0,0.,4.8,0.,4.8,0.,4.8,0.,4.8
1979-07-03 00:09:21.550 ,4,0,1.,4.8,0.,4.8,0.,4.8,0.,4.8
1979-07-03 00:09:26.350 ,4,0,1.,4.8,0.,4.8,0.,4.8,0.,4.8
1979-07-03 00:09:31.150 ,4,0,0.,4.8,0.,4.8,1.,4.8,0.,4.8
1979-07-03 00:09:35.950 ,3,0,0.,4.8,0.,4.8,0.,4.8,0.,4.8
1979-07-03 00:09:40.760 ,3,0,0.,4.8,0.,4.8,0.,4.8,0.,4.8
1979-07-03 00:09:45.550 ,3,0,0.,4.8,0.,4.8,0.,4.8,0.,4.8
1979-07-03 00:09:50.350 ,3,0,0.,4.8,0.,4.8,0.,4.8,0.,4.8
1979-07-03 00:09:55.150 ,3,0,0.,4.8,0.,4.8,0.,4.8,0.,4.8
1979-07-03 00:09:59.950 ,3,0,0.,4.8,0.,4.8,0.,4.8,1.,4.8
1979-07-03 00:10:04.760 ,3,0,1.,4.8,0.,4.8,0.,4.8,0.,4.8
1979-07-03 00:10:09.550 ,3,0,0.,4.8,0.,4.8,1.,4.8,0.,4.8
1979-07-03 00:10:14.350 ,3,0,0.,4.8,0.,4.8,0.,4.8,0.,4.8
1979-07-03 00:10:19.150 ,3,0,0.,4.8,0.,4.8,0.,4.8,0.,4.8
1979-07-03 00:10:23.950 ,2,0,0.,4.8,0.,4.8,0.,4.8,0.,4.8
1979-07-03 00:10:28.750 ,2,0,0.,4.8,0.,4.8,0.,4.8,0.,4.8
1979-07-03 00:10:33.550 ,2,0,0.,4.8,0.,4.8,0.,4.8,0.,4.8
1979-07-03 00:10:38.350 ,2,0,0.,4.8,0.,4.8,0.,4.8,0.,4.8
1979-07-03 00:10:43.150 ,2,0,0.,4.8,0.,4.8,0.,4.8,0.,4.8
1979-07-03 00:10:47.950 ,2,0,0.,4.8,0.,4.8,0.,4.8,0.,4.8
1979-07-03 00:10:52.750 ,2,0,1.,4.8,0.,4.8,0.,4.8,0.,4.8
1979-07-03 00:10:57.550 ,2,0,0.,4.8,0.,4.8,0.,4.8,0.,4.8
1979-07-03 00:11:02.350 ,2,0,0.,4.8,0.,4.8,0.,4.8,0.,4.8
1979-07-03 00:11:07.150 ,2,0,0.,4.8,0.,4.8,1.,4.8,0.,4.8
1979-07-03 00:11:11.950 ,1,0,0.,4.8,0.,4.8,0.,4.8,0.,4.8
1979-07-03 00:11:16.750 ,1,0,1.,4.8,0.,4.8,0.,4.8,0.,4.8
1979-07-03 00:11:21.550 ,1,0,0.,4.8,0.,4.8,0.,4.8,0.,4.8
1979-07-03 00:11:26.350 ,1,0,0.,4.8,0.,4.8,0.,4.8,0.,4.8
1979-07-03 00:11:31.150 ,1,0,0.,4.8,0.,4.8,0.,4.8,0.,4.8
1979-07-03 00:11:35.950 ,1,0,1.,4.8,0.,4.8,0.,4.8,0.,4.8
1979-07-03 00:11:40.750 ,1,0,1.,4.8,0.,4.8,0.,4.8,0.,4.8
1979-07-03 00:11:45.550 ,1,0,0.,4.8,0.,4.8,0.,4.8,0.,4.8
1979-07-03 00:11:50.350 ,1,0,1.,4.8,0.,4.8,0.,4.8,0.,4.8
1979-07-03 00:11:55.150 ,1,0,0.,4.8,0.,4.8,0.,4.8,0.,4.8
1979-07-03 00:11:59.950 ,0,0,1.,4.8,0.,4.8,0.,4.8,0.,4.8
1979-07-03 00:12:04.750 ,0,0,0.,4.8,0.,4.8,0.,4.8,0.,4.8
1979-07-03 00:12:09.550 ,0,0,1.,4.8,0.,4.8,0.,4.8,1.,4.8
1979-07-03 00:12:14.350 ,0,0,0.,4.8,0.,4.8,0.,4.8,0.,4.8
1979-07-03 00:12:19.150 ,0,0,0.,4.8,0.,4.8,0.,4.8,0.,4.8
1979-07-03 00:12:23.950 ,0,0,1.,4.8,0.,4.8,0.,4.8,0.,4.8
1979-07-03 00:12:28.750 ,0,0,0.,4.8,0.,4.8,0.,4.8,0.,4.8
1979-07-03 00:12:33.550 ,0,0,0.,4.8,0.,4.8,0.,4.8,0.,4.8
1979-07-03 00:12:38.350 ,0,0,0.,4.8,0.,4.8,0.,4.8,0.,4.8
1979-07-03 00:12:43.150 ,0,0,0.,4.8,0.,4.8,0.,4.8,0.,4.8
1979-07-03 00:12:47.950 ,0,0,0.,4.8,0.,4.8,0.,4.8,0.,4.8
1979-07-03 00:12:52.750 ,0,0,0.,4.8,0.,4.8,0.,4.8,0.,4.8
1979-07-03 00:12:57.550 ,0,0,0.,4.8,0.,4.8,0.,4.8,0.,4.8
1979-07-03 00:13:02.350 ,0,0,1.,4.8,0.,4.8,0.,4.8,0.,4.8
1979-07-03 00:13:07.150 ,0,0,2.,4.8,0.,4.8,1.,4.8,0.,4.8
1979-07-03 00:13:11.950 ,0,0,0.,4.8,0.,4.8,0.,4.8,0.,4.8
1979-07-03 00:13:16.750 ,0,0,2.,4.8,0.,4.8,0.,4.8,0.,4.8
1979-07-03 00:13:21.550 ,0,0,2.,4.8,0.,4.8,0.,4.8,0.,4.8
1979-07-03 00:13:26.350 ,0,0,1.,4.8,0.,4.8,0.,4.8,0.,4.8
1979-07-03 00:13:31.150 ,0,0,0.,4.8,0.,4.8,0.,4.8,0.,4.8
1979-07-03 00:13:35.950 ,1,0,0.,4.8,0.,4.8,0.,4.8,0.,4.8
1979-07-03 00:13:40.750 ,1,0,0.,4.8,0.,4.8,0.,4.8,0.,4.8
1979-07-03 00:13:45.550 ,1,0,0.,4.8,0.,4.8,0.,4.8,0.,4.8
1979-07-03 00:13:50.350 ,1,0,0.,4.8,0.,4.8,0.,4.8,0.,4.8
1979-07-03 00:13:55.150 ,1,0,0.,4.8,0.,4.8,0.,4.8,0.,4.8
1979-07-03 00:13:59.950 ,1,0,0.,4.8,0.,4.8,0.,4.8,0.,4.8
1979-07-03 00:14:04.750 ,1,0,0.,4.8,0.,4.8,1.,4.8,0.,4.8
1979-07-03 00:14:09.550 ,1,0,0.,4.8,0.,4.8,0.,4.8,0.,4.8
1979-07-03 00:14:14.350 ,1,0,0.,4.8,0.,4.8,0.,4.8,0.,4.8
1979-07-03 00:14:19.150 ,1,0,0.,4.8,0.,4.8,0.,4.8,0.,4.8
1979-07-03 00:14:23.950 ,2,0,0.,4.8,0.,4.8,0.,4.8,0.,4.8
1979-07-03 00:14:28.750 ,2,0,0.,4.8,0.,4.8,0.,4.8,1.,4.8
1979-07-03 00:14:33.550 ,2,0,0.,4.8,0.,4.8,0.,4.8,0.,4.8
1979-07-03 00:14:38.350 ,2,0,0.,4.8,0.,4.8,1.,4.8,0.,4.8
1979-07-03 00:14:43.150 ,2,0,0.,4.8,0.,4.8,0.,4.8,0.,4.8
1979-07-03 00:14:47.950 ,2,0,0.,4.8,0.,4.8,0.,4.8,0.,4.8
1979-07-03 00:14:52.750 ,2,0,0.,4.8,0.,4.8,0.,4.8,0.,4.8
1979-07-03 00:14:57.550 ,2,0,0.,4.8,0.,4.8,0.,4.8,0.,4.8
1979-07-03 00:15:02.350 ,2,0,0.,4.8,0.,4.8,0.,4.8,0.,4.8
1979-07-03 00:15:07.150 ,2,0,0.,4.8,0.,4.8,0.,4.8,0.,4.8
1979-07-03 00:15:11.950 ,3,0,0.,4.8,0.,4.8,1.,4.8,0.,4.8
1979-07-03 00:15:16.750 ,3,0,0.,4.8,1.,4.8,0.,4.8,0.,4.8
1979-07-03 00:15:21.550 ,3,0,0.,4.8,0.,4.8,0.,4.8,0.,4.8
1979-07-03 00:15:26.350 ,3,0,0.,4.8,0.,4.8,0.,4.8,0.,4.8
1979-07-03 00:15:31.150 ,3,0,0.,4.8,0.,4.8,0.,4.8,0.,4.8
1979-07-03 00:15:35.950 ,3,0,2.,4.8,0.,4.8,0.,4.8,0.,4.8
1979-07-03 00:15:40.750 ,3,0,0.,4.8,0.,4.8,0.,4.8,0.,4.8
1979-07-03 00:15:45.550 ,3,0,0.,4.8,0.,4.8,0.,4.8,1.,4.8
1979-07-03 00:15:50.350 ,3,0,0.,4.8,0.,4.8,0.,4.8,0.,4.8
1979-07-03 00:15:55.150 ,3,0,0.,4.8,0.,4.8,0.,4.8,0.,4.8
1979-07-03 00:15:59.950 ,4,0,0.,4.8,0.,4.8,1.,4.8,0.,4.8
1979-07-03 00:16:04.750 ,4,0,0.,4.8,0.,4.8,0.,4.8,0.,4.8
1979-07-03 00:16:09.550 ,4,0,1.,4.8,0.,4.8,1.,4.8,0.,4.8
1979-07-03 00:16:14.350 ,4,0,0.,4.8,0.,4.8,0.,4.8,0.,4.8
1979-07-03 00:16:19.150 ,4,0,0.,4.8,0.,4.8,0.,4.8,0.,4.8
1979-07-03 00:16:23.950 ,4,0,0.,4.8,0.,4.8,0.,4.8,0.,4.8
1979-07-03 00:16:28.750 ,4,0,0.,4.8,0.,4.8,0.,4.8,0.,4.8
1979-07-03 00:16:33.550 ,4,0,0.,4.8,0.,4.8,0.,4.8,0.,4.8
1979-07-03 00:16:38.350 ,4,0,0.,4.8,0.,4.8,0.,4.8,0.,4.8
1979-07-03 00:16:43.150 ,4,0,0.,4.8,0.,4.8,1.,4.8,0.,4.8
1979-07-03 00:16:47.950 ,5,0,1.,4.8,0.,4.8,0.,4.8,0.,4.8
1979-07-03 00:16:52.750 ,5,0,1.,4.8,0.,4.8,0.,4.8,0.,4.8
1979-07-03 00:16:57.550 ,5,0,0.,4.8,0.,4.8,0.,4.8,0.,4.8
1979-07-03 00:17:02.350 ,5,0,0.,4.8,0.,4.8,0.,4.8,0.,4.8
1979-07-03 00:17:07.150 ,5,0,1.,4.8,0.,4.8,1.,4.8,0.,4.8
1979-07-03 00:17:11.950 ,5,0,1.,4.8,0.,4.8,0.,4.8,0.,4.8
1979-07-03 00:17:16.750 ,5,0,0.,4.8,0.,4.8,0.,4.8,0.,4.8
1979-07-03 00:17:21.550 ,5,0,0.,4.8,0.,4.8,0.,4.8,0.,4.8
1979-07-03 00:17:26.350 ,5,0,0.,4.8,0.,4.8,0.,4.8,0.,4.8
1979-07-03 00:17:31.150 ,5,0,0.,4.8,0.,4.8,0.,4.8,0.,4.8
1979-07-03 00:17:35.950 ,6,0,1.,4.8,0.,4.8,0.,4.8,0.,4.8
1979-07-03 00:17:40.750 ,6,0,0.,4.8,0.,4.8,0.,4.8,0.,4.8
1979-07-03 00:17:45.550 ,6,0,1.,4.8,0.,4.8,0.,4.8,0.,4.8
1979-07-03 00:17:50.350 ,6,0,0.,4.8,0.,4.8,0.,4.8,0.,4.8
1979-07-03 00:17:55.150 ,6,0,2.,4.8,1.,4.8,0.,4.8,0.,4.8
1979-07-03 00:17:59.950 ,6,0,0.,4.8,0.,4.8,0.,4.8,0.,4.8
1979-07-03 00:18:04.750 ,6,0,0.,4.8,0.,4.8,0.,4.8,0.,4.8
1979-07-03 00:18:09.550 ,6,0,2.,4.8,0.,4.8,1.,4.8,0.,4.8
1979-07-03 00:18:14.350 ,6,0,0.,4.8,0.,4.8,0.,4.8,0.,4.8
1979-07-03 00:18:19.150 ,6,0,1.,4.8,0.,4.8,0.,4.8,0.,4.8
1979-07-03 00:18:23.950 ,7,0,0.,4.8,0.,4.8,0.,4.8,0.,4.8
1979-07-03 00:18:28.750 ,7,0,0.,4.8,0.,4.8,0.,4.8,0.,4.8
1979-07-03 00:18:33.550 ,7,0,0.,4.8,0.,4.8,0.,4.8,0.,4.8
1979-07-03 00:18:38.350 ,7,0,1.,4.8,0.,4.8,0.,4.8,0.,4.8
1979-07-03 00:18:43.150 ,7,0,0.,4.8,0.,4.8,0.,4.8,0.,4.8
1979-07-03 00:18:47.950 ,7,0,1.,4.8,0.,4.8,1.,4.8,0.,4.8
1979-07-03 00:18:52.750 ,7,0,0.,4.8,1.,4.8,1.,4.8,0.,4.8
1979-07-03 00:18:57.550 ,7,0,1.,4.8,0.,4.8,0.,4.8,0.,4.8
1979-07-03 00:19:02.350 ,7,0,0.,4.8,0.,4.8,0.,4.8,0.,4.8
1979-07-03 00:19:07.150 ,7,0,1.,4.8,0.,4.8,0.,4.8,0.,4.8
1979-07-03 00:19:11.950 ,3,1,1.,4.8,0.,4.8,0.,4.8,0.,4.8
1979-07-03 00:19:16.750 ,3,1,0.,4.8,0.,4.8,0.,4.8,0.,4.8
1979-07-03 00:19:21.550 ,3,1,0.,4.8,0.,4.8,0.,4.8,0.,4.8
1979-07-03 00:19:26.350 ,3,1,1.,4.8,0.,4.8,0.,4.8,0.,4.8
1979-07-03 00:19:31.150 ,3,1,1.,4.8,0.,4.8,0.,4.8,0.,4.8
1979-07-03 00:19:35.950 ,0,1,0.,4.8,0.,4.8,0.,4.8,0.,4.8
1979-07-03 00:19:40.750 ,0,1,0.,4.8,0.,4.8,0.,4.8,0.,4.8
1979-07-03 00:19:45.550 ,0,1,1.,4.8,0.,4.8,0.,4.8,0.,4.8
1979-07-03 00:19:50.350 ,0,1,0.,4.8,0.,4.8,0.,4.8,0.,4.8
1979-07-03 00:19:55.150 ,0,1,0.,4.8,0.,4.8,1.,4.8,0.,4.8
1979-07-03 00:19:59.950 ,4,1,0.,4.8,0.,4.8,0.,4.8,0.,4.8
1979-07-03 00:20:04.750 ,4,1,1.,4.8,0.,4.8,0.,4.8,0.,4.8
1979-07-03 00:20:09.550 ,4,1,0.,4.8,0.,4.8,0.,4.8,0.,4.8
1979-07-03 00:20:14.350 ,4,1,0.,4.8,0.,4.8,0.,4.8,0.,4.8
1979-07-03 00:20:19.150 ,4,1,1.,4.8,0.,4.8,0.,4.8,0.,4.8
1979-07-03 00:20:23.950 ,7,1,0.,4.8,0.,4.8,0.,4.8,0.,4.8
1979-07-03 00:20:28.750 ,7,1,0.,4.8,0.,4.8,0.,4.8,0.,4.8
1979-07-03 00:20:33.550 ,7,1,0.,4.8,0.,4.8,0.,4.8,0.,4.8
1979-07-03 00:20:38.350 ,7,1,0.,4.8,0.,4.8,0.,4.8,0.,4.8
1979-07-03 00:20:43.150 ,7,1,0.,4.8,0.,4.8,0.,4.8,0.,4.8
1979-07-03 00:20:47.950 ,3,1,0.,4.8,0.,4.8,0.,4.8,0.,4.8
1979-07-03 00:20:52.750 ,3,1,0.,4.8,0.,4.8,0.,4.8,0.,4.8
1979-07-03 00:20:57.550 ,3,1,1.,4.8,0.,4.8,0.,4.8,0.,4.8
1979-07-03 00:21:02.350 ,3,1,0.,4.8,0.,4.8,0.,4.8,0.,4.8
1979-07-03 00:21:07.150 ,3,1,0.,4.8,0.,4.8,0.,4.8,0.,4.8
1979-07-03 00:21:11.950 ,0,1,2.,4.8,0.,4.8,0.,4.8,0.,4.8
1979-07-03 00:21:16.750 ,0,1,0.,4.8,0.,4.8,1.,4.8,0.,4.8
1979-07-03 00:21:21.550 ,0,1,1.,4.8,0.,4.8,0.,4.8,0.,4.8
1979-07-03 00:21:26.350 ,0,1,0.,4.8,0.,4.8,0.,4.8,0.,4.8
1979-07-03 00:21:31.150 ,0,1,1.,4.8,0.,4.8,0.,4.8,0.,4.8
1979-07-03 00:21:35.950 ,4,1,0.,4.8,0.,4.8,1.,4.8,0.,4.8
1979-07-03 00:21:40.750 ,4,1,0.,4.8,0.,4.8,0.,4.8,0.,4.8
1979-07-03 00:21:45.550 ,4,1,0.,4.8,0.,4.8,0.,4.8,0.,4.8
1979-07-03 00:21:50.350 ,4,1,0.,4.8,0.,4.8,0.,4.8,0.,4.8
1979-07-03 00:21:55.150 ,4,1,0.,4.8,0.,4.8,0.,4.8,0.,4.8
1979-07-03 00:21:59.950 ,7,1,0.,4.8,0.,4.8,0.,4.8,0.,4.8
1979-07-03 00:22:04.750 ,7,1,0.,4.8,0.,4.8,0.,4.8,0.,4.8
1979-07-03 00:22:09.550 ,7,1,0.,4.8,0.,4.8,0.,4.8,0.,4.8
1979-07-03 00:22:14.350 ,7,1,0.,4.8,0.,4.8,0.,4.8,0.,4.8
1979-07-03 00:22:19.150 ,7,1,0.,4.8,0.,4.8,0.,4.8,0.,4.8
1979-07-03 00:22:23.950 ,3,1,1.,4.8,0.,4.8,0.,4.8,0.,4.8
1979-07-03 00:22:28.750 ,3,1,0.,4.8,0.,4.8,0.,4.8,0.,4.8
1979-07-03 00:22:33.550 ,3,1,0.,4.8,0.,4.8,0.,4.8,0.,4.8
1979-07-03 00:22:38.350 ,3,1,0.,4.8,0.,4.8,0.,4.8,0.,4.8
1979-07-03 00:22:43.150 ,3,1,0.,4.8,0.,4.8,0.,4.8,0.,4.8
1979-07-03 00:22:47.950 ,0,1,0.,4.8,0.,4.8,1.,4.8,0.,4.8
1979-07-03 00:22:52.750 ,0,1,0.,4.8,0.,4.8,1.,4.8,0.,4.8
1979-07-03 00:22:57.550 ,0,1,0.,4.8,0.,4.8,0.,4.8,0.,4.8
1979-07-03 00:23:02.350 ,0,1,0.,4.8,0.,4.8,0.,4.8,0.,4.8
1979-07-03 00:23:07.150 ,0,1,2.,4.8,0.,4.8,0.,4.8,0.,4.8
1979-07-03 00:23:11.950 ,4,1,0.,4.8,0.,4.8,0.,4.8,0.,4.8
1979-07-03 00:23:16.750 ,4,1,1.,4.8,0.,4.8,0.,4.8,0.,4.8
1979-07-03 00:23:21.550 ,4,1,0.,4.8,0.,4.8,0.,4.8,0.,4.8
1979-07-03 00:23:26.350 ,4,1,0.,4.8,0.,4.8,0.,4.8,0.,4.8
1979-07-03 00:23:31.150 ,4,1,1.,4.8,0.,4.8,0.,4.8,0.,4.8
1979-07-03 00:23:35.950 ,7,1,1.,4.8,0.,4.8,0.,4.8,0.,4.8
1979-07-03 00:23:40.750 ,7,1,1.,4.8,0.,4.8,0.,4.8,0.,4.8
1979-07-03 00:23:45.550 ,7,1,0.,4.8,0.,4.8,0.,4.8,0.,4.8
1979-07-03 00:23:50.350 ,7,1,0.,4.8,0.,4.8,0.,4.8,0.,4.8
1979-07-03 00:23:55.150 ,7,1,0.,4.8,0.,4.8,0.,4.8,0.,4.8
1979-07-03 00:23:59.950 ,3,1,0.,4.8,0.,4.8,0.,4.8,0.,4.8
1979-07-03 00:24:04.750 ,3,1,0.,4.8,0.,4.8,0.,4.8,0.,4.8
1979-07-03 00:24:09.550 ,3,1,0.,4.8,0.,4.8,0.,4.8,0.,4.8
1979-07-03 00:24:14.350 ,3,1,0.,4.8,0.,4.8,0.,4.8,0.,4.8
1979-07-03 00:24:19.150 ,3,1,1.,4.8,0.,4.8,0.,4.8,0.,4.8
1979-07-03 00:24:23.950 ,0,1,1.,4.8,0.,4.8,0.,4.8,0.,4.8
1979-07-03 00:24:28.750 ,0,1,0.,4.8,1.,4.8,0.,4.8,0.,4.8
1979-07-03 00:24:33.550 ,0,1,0.,4.8,0.,4.8,0.,4.8,0.,4.8
1979-07-03 00:24:38.350 ,0,1,1.,4.8,0.,4.8,0.,4.8,0.,4.8
1979-07-03 00:24:43.150 ,0,1,1.,4.8,0.,4.8,1.,4.8,0.,4.8
1979-07-03 00:24:47.950 ,4,1,0.,4.8,0.,4.8,0.,4.8,0.,4.8
1979-07-03 00:24:52.750 ,4,1,0.,4.8,0.,4.8,0.,4.8,0.,4.8
1979-07-03 00:24:57.550 ,4,1,0.,4.8,0.,4.8,0.,4.8,0.,4.8
1979-07-03 00:25:02.350 ,4,1,0.,4.8,0.,4.8,0.,4.8,0.,4.8
1979-07-03 00:25:07.150 ,4,1,0.,4.8,0.,4.8,0.,4.8,0.,4.8
1979-07-03 00:25:11.950 ,7,1,0.,4.8,0.,4.8,0.,4.8,0.,4.8
1979-07-03 00:25:16.750 ,7,1,0.,4.8,0.,4.8,0.,4.8,0.,4.8
1979-07-03 00:25:21.550 ,7,1,1.,4.8,0.,4.8,0.,4.8,0.,4.8
1979-07-03 00:25:26.350 ,7,1,0.,4.8,0.,4.8,0.,4.8,0.,4.8
1979-07-03 00:25:31.150 ,7,1,0.,4.8,0.,4.8,0.,4.8,0.,4.8
1979-07-03 00:25:35.950 ,3,1,0.,4.8,0.,4.8,0.,4.8,0.,4.8
1979-07-03 00:25:40.750 ,3,1,0.,4.8,0.,4.8,0.,4.8,0.,4.8
1979-07-03 00:25:45.550 ,3,1,0.,4.8,0.,4.8,0.,4.8,0.,4.8
1979-07-03 00:25:50.350 ,3,1,0.,4.8,0.,4.8,0.,4.8,0.,4.8
1979-07-03 00:25:55.150 ,3,1,1.,4.8,0.,4.8,0.,4.8,0.,4.8
1979-07-03 00:25:59.950 ,0,1,0.,4.8,0.,4.8,1.,4.8,0.,4.8
1979-07-03 00:26:04.750 ,0,1,0.,4.8,0.,4.8,0.,4.8,0.,4.8
1979-07-03 00:26:09.550 ,0,1,0.,4.8,0.,4.8,0.,4.8,0.,4.8
1979-07-03 00:26:14.350 ,0,1,1.,4.8,0.,4.8,0.,4.8,0.,4.8
1979-07-03 00:26:19.150 ,0,1,3.,4.8,0.,4.8,0.,4.8,0.,4.8
1979-07-03 00:26:23.950 ,4,1,0.,4.8,0.,4.8,0.,4.8,0.,4.8
1979-07-03 00:26:28.750 ,4,1,2.,4.8,0.,4.8,0.,4.8,0.,4.8
1979-07-03 00:26:33.550 ,4,1,0.,4.8,0.,4.8,0.,4.8,0.,4.8
1979-07-03 00:26:38.350 ,4,1,0.,4.8,0.,4.8,0.,4.8,0.,4.8
1979-07-03 00:26:43.150 ,4,1,0.,4.8,0.,4.8,0.,4.8,0.,4.8
1979-07-03 00:26:47.950 ,7,1,0.,4.8,0.,4.8,1.,4.8,0.,4.8
1979-07-03 00:26:52.750 ,7,1,0.,4.8,0.,4.8,0.,4.8,0.,4.8
1979-07-03 00:26:57.550 ,7,1,0.,4.8,1.,4.8,1.,4.8,0.,4.8
1979-07-03 00:27:02.350 ,7,1,0.,4.8,0.,4.8,0.,4.8,0.,4.8
1979-07-03 00:27:07.150 ,7,1,1.,4.8,0.,4.8,0.,4.8,0.,4.8
1979-07-03 00:27:11.950 ,3,1,1.,4.8,0.,4.8,0.,4.8,0.,4.8
1979-07-03 00:27:16.750 ,3,1,0.,4.8,0.,4.8,0.,4.8,0.,4.8
1979-07-03 00:27:21.550 ,3,1,0.,4.8,0.,4.8,0.,4.8,0.,4.8
1979-07-03 00:27:26.350 ,3,1,1.,4.8,0.,4.8,0.,4.8,0.,4.8
1979-07-03 00:27:31.150 ,3,1,0.,4.8,0.,4.8,0.,4.8,0.,4.8
1979-07-03 00:27:35.950 ,0,1,0.,4.8,1.,4.8,0.,4.8,0.,4.8
1979-07-03 00:27:40.750 ,0,1,0.,4.8,0.,4.8,0.,4.8,0.,4.8
1979-07-03 00:27:45.550 ,0,1,0.,4.8,0.,4.8,0.,4.8,0.,4.8
1979-07-03 00:27:50.350 ,0,1,0.,4.8,0.,4.8,0.,4.8,0.,4.8
1979-07-03 00:27:55.150 ,0,1,0.,4.8,0.,4.8,0.,4.8,0.,4.8
1979-07-03 00:27:59.950 ,4,1,1.,4.8,0.,4.8,0.,4.8,0.,4.8
1979-07-03 00:28:04.750 ,4,1,0.,4.8,0.,4.8,0.,4.8,0.,4.8
1979-07-03 00:28:09.550 ,4,1,0.,4.8,0.,4.8,1.,4.8,0.,4.8
1979-07-03 00:28:14.350 ,4,1,0.,4.8,0.,4.8,0.,4.8,0.,4.8
1979-07-03 00:28:19.150 ,4,1,2.,4.8,0.,4.8,0.,4.8,0.,4.8
1979-07-03 00:28:23.950 ,7,1,0.,4.8,0.,4.8,0.,4.8,0.,4.8
1979-07-03 00:28:28.750 ,7,1,0.,4.8,0.,4.8,0.,4.8,0.,4.8
1979-07-03 00:28:33.550 ,7,1,0.,4.8,0.,4.8,0.,4.8,0.,4.8
1979-07-03 00:28:38.350 ,7,1,0.,4.8,0.,4.8,0.,4.8,0.,4.8
1979-07-03 00:28:43.150 ,7,1,0.,4.8,0.,4.8,0.,4.8,0.,4.8
1979-07-03 00:28:47.950 ,3,1,0.,4.8,0.,4.8,0.,4.8,0.,4.8
1979-07-03 00:28:52.750 ,3,1,0.,4.8,0.,4.8,0.,4.8,0.,4.8
1979-07-03 00:28:57.550 ,3,1,2.,4.8,0.,4.8,0.,4.8,0.,4.8
1979-07-03 00:29:02.350 ,3,1,2.,4.8,0.,4.8,0.,4.8,0.,4.8
1979-07-03 00:29:07.150 ,3,1,0.,4.8,0.,4.8,0.,4.8,0.,4.8
1979-07-03 00:29:11.950 ,0,1,0.,4.8,0.,4.8,0.,4.8,0.,4.8
1979-07-03 00:29:16.750 ,0,1,0.,4.8,0.,4.8,0.,4.8,0.,4.8
1979-07-03 00:29:21.550 ,0,1,0.,4.8,0.,4.8,0.,4.8,0.,4.8
1979-07-03 00:29:26.350 ,0,1,0.,4.8,0.,4.8,0.,4.8,0.,4.8
1979-07-03 00:29:31.150 ,0,1,0.,4.8,0.,4.8,0.,4.8,0.,4.8
1979-07-03 00:29:35.950 ,0,0,0.,4.8,0.,4.8,0.,4.8,0.,4.8
1979-07-03 00:29:40.750 ,0,0,0.,4.8,0.,4.8,0.,4.8,0.,4.8
1979-07-03 00:29:45.550 ,0,0,0.,4.8,0.,4.8,0.,4.8,0.,4.8
1979-07-03 00:29:50.350 ,0,0,0.,4.8,0.,4.8,0.,4.8,0.,4.8
1979-07-03 00:29:55.150 ,0,0,0.,4.8,0.,4.8,0.,4.8,0.,4.8
1979-07-03 00:29:59.950 ,0,0,0.,4.8,0.,4.8,0.,4.8,0.,4.8
1979-07-03 00:30:04.750 ,0,0,0.,4.8,1.,4.8,1.,4.8,0.,4.8
1979-07-03 00:30:09.550 ,0,0,1.,4.8,0.,4.8,0.,4.8,0.,4.8
1979-07-03 00:30:14.350 ,0,0,0.,4.8,0.,4.8,1.,4.8,0.,4.8
1979-07-03 00:30:19.150 ,0,0,1.,4.8,0.,4.8,0.,4.8,0.,4.8
1979-07-03 00:30:23.950 ,5,0,1.,4.8,0.,4.8,0.,4.8,0.,4.8
1979-07-03 00:30:28.750 ,5,0,1.,4.8,0.,4.8,0.,4.8,0.,4.8
1979-07-03 00:30:33.550 ,5,0,0.,4.8,0.,4.8,0.,4.8,0.,4.8
1979-07-03 00:30:38.350 ,5,0,0.,4.8,0.,4.8,0.,4.8,0.,4.8
1979-07-03 00:30:43.150 ,5,0,1.,4.8,0.,4.8,0.,4.8,0.,4.8
1979-07-03 00:30:47.950 ,5,0,2.,4.8,0.,4.8,0.,4.8,0.,4.8
1979-07-03 00:30:52.750 ,5,0,1.,4.8,0.,4.8,1.,4.8,0.,4.8
1979-07-03 00:30:57.550 ,5,0,0.,4.8,0.,4.8,0.,4.8,0.,4.8
1979-07-03 00:31:02.350 ,5,0,0.,4.8,0.,4.8,0.,4.8,0.,4.8
1979-07-03 00:31:07.150 ,5,0,0.,4.8,0.,4.8,1.,4.8,0.,4.8
1979-07-03 00:31:59.950 ,0,0,0.,4.8,0.,4.8,0.,4.8,0.,4.8
1979-07-03 00:32:04.750 ,0,0,0.,4.8,0.,4.8,0.,4.8,0.,4.8
1979-07-03 00:32:09.550 ,0,0,0.,4.8,0.,4.8,0.,4.8,0.,4.8
1979-07-03 00:32:14.350 ,0,0,0.,4.8,0.,4.8,0.,4.8,0.,4.8
1979-07-03 00:32:19.150 ,0,0,0.,4.8,0.,4.8,0.,4.8,0.,4.8
1979-07-03 00:32:23.950 ,0,0,0.,4.8,0.,4.8,0.,4.8,0.,4.8
1979-07-03 00:32:28.750 ,0,0,0.,4.8,0.,4.8,0.,4.8,0.,4.8
1979-07-03 00:32:33.550 ,0,0,0.,4.8,1.,4.8,0.,4.8,0.,4.8
1979-07-03 00:32:38.350 ,0,0,0.,4.8,0.,4.8,0.,4.8,0.,4.8
1979-07-03 00:32:43.150 ,0,0,0.,4.8,0.,4.8,0.,4.8,0.,4.8
1979-07-03 00:32:47.950 ,2,0,0.,4.8,0.,4.8,0.,4.8,0.,4.8
1979-07-03 00:32:52.750 ,2,0,0.,4.8,0.,4.8,0.,4.8,0.,4.8
1979-07-03 00:32:57.550 ,2,0,0.,4.8,0.,4.8,0.,4.8,0.,4.8
1979-07-03 00:33:02.350 ,2,0,0.,4.8,0.,4.8,0.,4.8,0.,4.8
1979-07-03 00:33:07.150 ,2,0,0.,4.8,0.,4.8,0.,4.8,0.,4.8
1979-07-03 00:33:11.950 ,2,0,1.,4.8,1.,4.8,0.,4.8,0.,4.8
1979-07-03 00:33:16.750 ,2,0,1.,4.8,0.,4.8,0.,4.8,0.,4.8
1979-07-03 00:33:21.550 ,2,0,0.,4.8,0.,4.8,0.,4.8,0.,4.8
1979-07-03 00:33:26.350 ,2,0,0.,4.8,0.,4.8,0.,4.8,0.,4.8
1979-07-03 00:33:31.150 ,2,0,0.,4.8,0.,4.8,0.,4.8,0.,4.8
1979-07-03 00:33:35.950 ,1,0,1.,4.8,0.,4.8,0.,4.8,0.,4.8
1979-07-03 00:33:40.750 ,1,0,0.,4.8,0.,4.8,0.,4.8,0.,4.8
1979-07-03 00:33:45.550 ,1,0,2.,4.8,0.,4.8,0.,4.8,0.,4.8
1979-07-03 00:33:50.350 ,1,0,0.,4.8,1.,4.8,0.,4.8,0.,4.8
1979-07-03 00:33:55.150 ,1,0,0.,4.8,0.,4.8,0.,4.8,0.,4.8
1979-07-03 00:33:59.950 ,1,0,1.,4.8,0.,4.8,0.,4.8,1.,4.8
1979-07-03 00:34:04.750 ,1,0,0.,4.8,0.,4.8,0.,4.8,0.,4.8